Location: Nürtingen
(48.6244°N, 9.3469°E)
Time: 10:54:54
(UTC+01:00)

Envisat - Visible Passes

Search period start: 26 March 2019 00:00
Search period end: 05 April 2019 01:00
Orbit: 764 x 766 km, 98.2° (Epoch: 25 March)

Date Brightness Start Highest point End Pass type
(mag) Time Alt. Az. Time Alt. Az. Time Alt. Az.
26 Mar 6.1 20:34:50 10° WSW 20:36:57 12° W 20:39:04 10° WNW visible
27 Mar 5.3 19:55:33 10° SSW 19:59:44 26° W 20:03:58 10° NW visible
28 Mar 4.0 19:17:47 10° S 19:22:44 52° W 19:27:42 10° NNW visible
29 Mar 5.9 20:22:34 10° SW 20:25:35 16° W 20:28:35 10° NW visible
30 Mar 5.0 19:43:56 10° SSW 19:48:25 31° W 19:52:57 10° NNW visible
01 Apr 5.8 21:10:37 10° SW 21:14:13 19° W 21:17:50 10° NW visible
02 Apr 4.6 20:32:24 10° SSW 20:37:07 38° W 20:41:53 10° NNW visible
03 Apr 6.2 21:38:32 10° WSW 21:40:07 11° W 21:41:42 10° WNW visible
04 Apr 5.5 20:58:49 10° SW 21:02:52 24° W 21:06:57 10° NW visible
